Overview Statistics Trail Chart Weather Telemetry Raw packets
 

This is the latest recevied weather packets stored in our database for station/object K6POO-1. If no packets are shown the sender has not sent any weather packets the latest 10 day(s).

<< 4 5 6 7 8 9 10 >>
Time Temp. Humidity Pressure Rain* Wind** Luminosity Snow
1788654555 20° C 62% 1014.4 hPa 0 mm - 181 W/m² -
1788654236 20° C 63% 1014.6 hPa 0 mm - 222 W/m² -
1788653932 19.44° C 65% 1014.6 hPa 0 mm - 199 W/m² -
1788653627 19.44° C 65% 1014.6 hPa 0 mm - 170 W/m² -
1788653322 20° C 63% 1014.6 hPa 0 mm - 167 W/m² -
1788653023 20.56° C 61% 1014.7 hPa 0 mm - 254 W/m² -
1788652722 20.56° C 62% 1014.5 hPa 0 mm - 326 W/m² -
1788652417 20.56° C 62% 1014.5 hPa 0 mm - 340 W/m² -
1788652112 20° C 64% 1014.6 hPa 0 mm - 340 W/m² -
1788651808 19.44° C 64% 1014.5 hPa 0 mm - 354 W/m² -
1788651503 19.44° C 64% 1014.6 hPa 0 mm - 269 W/m² -
1788651198 19.44° C 65% 1014.6 hPa 0 mm - 381 W/m² -
1788650897 19.44° C 69% 1014.7 hPa 0 mm - 391 W/m² -
1788650593 19.44° C 71% 1014.9 hPa 0 mm - 408 W/m² -
1788650288 19.44° C 71% 1014.8 hPa 0 mm - 431 W/m² -
1788649983 19.44° C 71% 1014.9 hPa 0 mm - 457 W/m² -
1788649680 19.44° C 70% 1015.1 hPa 0 mm - 476 W/m² -
1788649377 20° C 69% 1014.7 hPa 0 mm - 496 W/m² -
1788649078 20° C 65% 1014.9 hPa 0 mm - 510 W/m² -
1788648772 20.56° C 61% 1014.8 hPa 0 mm - 522 W/m² -
1788648471 20.56° C 60% 1014.9 hPa 0 mm - 537 W/m² -
1788648167 20.56° C 59% 1014.9 hPa 0 mm - 555 W/m² -
1788647863 21.67° C 54% 1014.8 hPa 0 mm - 579 W/m² -
1788647560 21.11° C 54% 1014.8 hPa 0 mm - 598 W/m² -
1788647255 20.56° C 54% 1014.7 hPa 0 mm - 616 W/m² -

* Rain latest hour (hover to see other rain measurements)
** Current wind speed in m/s (hover to see current wind gust speed)